Rochester, NY

11:40 PM EDT on September 22, 2019 (GMT -0400)
Greater Rochester International

Weather History for KROC - July, 2019

Change the Weather History Date:

Wednesday, July 17, 2019

  Actual Average Record
Temperature  
Mean Temperature 77 °F 71 °F  
Max Temperature 82 °F 81 °F 97 °F (2012)
Min Temperature 72 °F 61 °F 48 °F (1892)
Degree Days  
Heating Degree Days 0 0  
Month to date heating degree days 0 6  
Since 1 June heating degree days 48 74  
Since 1 July heating degree days 0 6  
Cooling Degree Days 12 6  
Month to date cooling degree days 149 102  
Year to date cooling degree days 242 238  
Since 1 June cooling degree days 232 208  
Growing Degree Days 28 (Base 50)    
Moisture  
Dew Point 71 °F    
Average Humidity 81    
Maximum Humidity 93    
Minimum Humidity 69    
Precipitation  
Precipitation 0.48 in 0.10 in 2.04 in (1873)
Month to date precipitation 2.49 1.78  
Year to date precipitation 18.96 17.58  
Snow  
Snow 0.00 in 0.00 in 0.00 in ()
Month to date snowfall 0.0 0.0  
Since 1 June snowfall 0.0 0.0  
Since 1 July snowfall 0.0 0.0  
Snow Depth 0.00 in    
Sea Level Pressure  
Sea Level Pressure 29.92 in    
Wind  
Wind Speed 5 mph (SSW)    
Max Wind Speed 14 mph    
Max Gust Speed 18 mph    
Visibility 8 miles    
Events Rain    
T = Trace of Precipitation, MM = Missing Value Source: NWS Daily Summary

Daily Weather History Graph

Daily Weather History Graph

Search for Another Location

Airport or City:

Astronomy

Jul. 17, 2019 Rise Set
Actual Time 5:46 AM EDT 8:46 PM EDT
Civil Twilight 5:12 AM EDT 9:20 PM EDT
Nautical Twilight 4:28 AM EDT 10:04 PM EDT
Astronomical Twilight 3:37 AM EDT 10:55 PM EDT
Moon 9:33 PM EDT (7/17) 6:16 AM EDT (7/17)
Length of Visible Light 16h 08m
Length of Day
15h 00m
Waxing Gibbous, 99% of the Moon is Illuminated
Jul 17
Waxing Gibbous
Jul 24
Last Quarter
Jul 31
New
Aug 7
First Quarter
Aug 15
Full

Hourly Weather History & Observations

Time (EDT) Temp. Heat Index Dew Point Humidity Pressure Visibility Wind Dir Wind Speed Gust Speed Precip Events Conditions
12:54 AM 73.9 °F - 70.0 °F 87% 29.94 in 10.0 mi SW 8.1 mph - 0.00 in Rain Light Rain
1:54 AM 73.9 °F - 70.0 °F 87% 29.95 in 10.0 mi Calm Calm - 0.00 in   Overcast
2:54 AM 73.0 °F - 70.0 °F 90% 29.92 in 10.0 mi SW 3.5 mph - 0.00 in Rain Light Rain
3:54 AM 73.0 °F - 70.0 °F 90% 29.91 in 10.0 mi SW 6.9 mph - 0.00 in   Overcast
4:54 AM 73.0 °F - 70.0 °F 90% 29.92 in 10.0 mi Calm Calm - N/A   Overcast
5:54 AM 73.0 °F - 70.0 °F 90% 29.92 in 10.0 mi SW 4.6 mph - N/A   Overcast
6:54 AM 73.9 °F - 70.0 °F 87% 29.91 in 10.0 mi SSW 5.8 mph - N/A   Overcast
7:54 AM 75.0 °F - 70.0 °F 84% 29.91 in 10.0 mi WSW 5.8 mph - 0.00 in   Overcast
8:54 AM 75.0 °F - 71.1 °F 87% 29.92 in 10.0 mi WSW 5.8 mph - 0.00 in Rain Light Rain
9:46 AM 73.9 °F - 71.1 °F 91% 29.94 in 2.0 mi SW 4.6 mph - 0.06 in Rain Rain
9:54 AM 75.0 °F - 71.1 °F 87% 29.94 in 4.0 mi SW 4.6 mph - 0.07 in Rain Light Rain
10:06 AM 73.9 °F - 71.1 °F 91% 29.93 in 2.5 mi SW 9.2 mph - 0.05 in Rain Rain
10:21 AM 73.9 °F - 71.1 °F 91% 29.93 in 4.0 mi West 11.5 mph - 0.11 in Rain Rain
10:54 AM 73.9 °F - 71.1 °F 91% 29.93 in 4.0 mi West 8.1 mph - 0.16 in Rain Rain
11:54 AM 75.9 °F - 72.0 °F 87% 29.94 in 10.0 mi WSW 8.1 mph - 0.03 in Rain Light Rain
12:35 PM 75.0 °F - 72.0 °F 90% 29.95 in 2.0 mi WSW 4.6 mph - 0.04 in Rain Rain
12:54 PM 75.0 °F - 72.0 °F 90% 29.94 in 2.0 mi SW 5.8 mph - 0.10 in Rain Rain
1:17 PM 75.0 °F - 72.0 °F 90% 29.93 in 5.0 mi SW 6.9 mph - 0.09 in Rain Light Rain
1:54 PM 75.0 °F - 72.0 °F 90% 29.92 in 10.0 mi SSW 6.9 mph - 0.11 in Rain Light Rain
2:54 PM 77.0 °F - 72.0 °F 84% 29.91 in 10.0 mi SW 4.6 mph - 0.01 in   Overcast
3:54 PM 78.1 °F - 72.0 °F 81% 29.89 in 10.0 mi WSW 4.6 mph - 0.00 in Rain Light Rain
4:54 PM 79.0 °F - 71.1 °F 77% 29.87 in 10.0 mi South 5.8 mph - 0.00 in   Mostly Cloudy
5:54 PM 82.0 °F 86.3 °F 71.1 °F 69% 29.88 in 10.0 mi Calm Calm - N/A   Mostly Cloudy
6:05 PM 81.0 °F 84.4 °F 70.0 °F 69% 29.88 in 10.0 mi ESE 4.6 mph - N/A   Mostly Cloudy
6:54 PM 81.0 °F 84.4 °F 70.0 °F 69% 29.88 in 10.0 mi ESE 3.5 mph - N/A   Mostly Cloudy
7:54 PM 78.1 °F - 71.1 °F 79% 29.88 in 10.0 mi ENE 9.2 mph - N/A   Mostly Cloudy
8:04 PM 78.1 °F - 70.0 °F 76% 29.89 in 10.0 mi East 9.2 mph - N/A   Mostly Cloudy
8:54 PM 75.9 °F - 70.0 °F 82% 29.90 in 10.0 mi ENE 8.1 mph - N/A   Mostly Cloudy
9:54 PM 73.9 °F - 70.0 °F 87% 29.91 in 10.0 mi East 5.8 mph - N/A   Scattered Clouds
10:54 PM 73.9 °F - 70.0 °F 87% 29.93 in 10.0 mi ENE 5.8 mph - N/A   Scattered Clouds
11:54 PM 73.9 °F - 70.0 °F 87% 29.93 in 10.0 mi East 4.6 mph - N/A   Mostly Cloudy